Park Rapids, MN

2:34 AM CDT on April 20, 2018 (GMT -0500)
Park Rapids Municipal

Weather History for KPKD - September, 2013

Change the Weather History Date:

Saturday, September 28, 2013

  Actual Average Record
Temperature  
Mean Temperature 54 °F -  
Max Temperature 64 °F 63 °F 86 °F (1956)
Min Temperature 45 °F 38 °F 21 °F (1961)
Degree Days  
Heating Degree Days 11    
Growing Degree Days 4 (Base 50)    
Moisture  
Dew Point 51 °F    
Average Humidity 91    
Maximum Humidity 100    
Minimum Humidity 69    
Precipitation  
Precipitation 0.39 in - - ()
Sea Level Pressure  
Sea Level Pressure 29.67 in    
Wind  
Wind Speed 8 mph (West)    
Max Wind Speed 23 mph    
Max Gust Speed 29 mph    
Visibility 9 miles    
Events Rain    
Averages and records for this station are not official NWS values.
T = Trace of Precipitation, MM = Missing Value Source: NWS Daily Summary

Daily Weather History Graph

Daily Weather History Graph

Search for Another Location

Airport or City:

Astronomy

Sep. 28, 2013 Rise Set
Actual Time 7:15 AM CDT 7:05 PM CDT
Civil Twilight 6:45 AM CDT 7:35 PM CDT
Nautical Twilight 6:09 AM CDT 8:10 PM CDT
Astronomical Twilight 5:33 AM CDT 8:46 PM CDT
Moon 12:44 AM CDT (9/28) 3:42 PM CDT (9/28)
Length of Visible Light 12h 50m
Length of Day
11h 49m
Waning Crescent, 36% of the Moon is Illuminated
Sep 28
Waning Crescent
Oct 4
New
Oct 11
First Quarter
Oct 18
Full
Oct 26
Last Quarter

Hourly Weather History & Observations

Time (CDT) Temp. Windchill Dew Point Humidity Pressure Visibility Wind Dir Wind Speed Gust Speed Precip Events Conditions
12:53 AM 57.9 °F - 57.0 °F 97% 29.73 in 10.0 mi NNE 4.6 mph - 0.00 in   Mostly Cloudy
1:24 AM 57.2 °F - 57.2 °F 100% 29.74 in 10.0 mi West 3.5 mph - N/A   Mostly Cloudy
1:50 AM 59.0 °F - 57.2 °F 94% 29.71 in 10.0 mi Calm Calm - N/A   Overcast
1:53 AM 59.0 °F - 57.9 °F 96% 29.70 in 10.0 mi Calm Calm - N/A   Mostly Cloudy
2:53 AM 60.1 °F - 57.9 °F 93% 29.68 in 10.0 mi Calm Calm - N/A   Overcast
3:53 AM 61.0 °F - 57.9 °F 90% 29.63 in 10.0 mi East 3.5 mph - N/A   Overcast
4:53 AM 63.0 °F - 60.1 °F 90% 29.61 in 10.0 mi ESE 6.9 mph - N/A   Overcast
5:23 AM 62.6 °F - 59.0 °F 88% 29.63 in 10.0 mi West 13.8 mph 20.7 mph N/A   Overcast
5:53 AM 59.0 °F - 57.9 °F 96% 29.59 in 10.0 mi WNW 8.1 mph - N/A   Overcast
6:22 AM 55.4 °F - 55.4 °F 100% 29.58 in 10.0 mi NW 5.8 mph - N/A   Overcast
6:30 AM 55.4 °F - 55.4 °F 100% 29.58 in 10.0 mi NW 3.5 mph - N/A   Overcast
6:48 AM 55.4 °F - 55.4 °F 100% 29.57 in 10.0 mi Calm Calm - 0.00 in Rain Light Rain
6:53 AM 55.9 °F - 55.0 °F 97% 29.56 in 8.0 mi Calm Calm - 0.01 in Rain Light Rain
7:49 AM 55.4 °F - 55.4 °F 100% 29.55 in 4.0 mi SSE 3.5 mph - 0.12 in Rain Rain
7:53 AM 55.9 °F - 55.0 °F 97% 29.55 in 4.0 mi Variable 3.5 mph - 0.13 in Rain Rain
8:13 AM 55.4 °F - 55.4 °F 100% 29.55 in 3.0 mi SSW 8.1 mph - 0.05 in Rain Rain
8:20 AM 57.2 °F - 55.4 °F 94% 29.56 in 2.5 mi WSW 11.5 mph - 0.07 in Rain Light Rain
8:27 AM 55.4 °F - 55.4 °F 100% 29.56 in 5.0 mi West 12.7 mph 18.4 mph 0.08 in Rain Light Rain
8:53 AM 53.1 °F - 53.1 °F 100% 29.58 in 6.0 mi West 13.8 mph - 0.10 in Rain Rain
9:14 AM 51.8 °F - 51.8 °F 100% 29.58 in 7.0 mi West 13.8 mph - 0.03 in Rain Light Rain
9:25 AM 51.8 °F - 51.8 °F 100% 29.58 in 7.0 mi West 15.0 mph - 0.04 in Rain Rain
9:53 AM 51.1 °F - 50.0 °F 96% 29.60 in 9.0 mi West 16.1 mph - 0.08 in Rain Light Rain
10:27 AM 51.8 °F - 48.2 °F 88% 29.60 in 10.0 mi WNW 13.8 mph 21.9 mph 0.03 in Rain Light Rain
10:53 AM 51.1 °F - 48.9 °F 92% 29.61 in 10.0 mi WNW 13.8 mph - 0.03 in   Overcast
11:38 AM 51.8 °F - 50.0 °F 94% 29.63 in 5.0 mi WNW 15.0 mph - 0.03 in Rain Light Rain
11:53 AM 51.1 °F - 48.9 °F 92% 29.65 in 9.0 mi West 16.1 mph - 0.04 in Rain Light Rain
12:14 PM 51.8 °F - 51.8 °F 100% 29.64 in 9.0 mi West 16.1 mph 24.2 mph 0.00 in   Overcast
12:49 PM 51.8 °F - 48.2 °F 88% 29.65 in 6.0 mi WNW 18.4 mph 25.3 mph 0.00 in Rain Light Rain
12:53 PM 51.1 °F - 48.9 °F 92% 29.65 in 6.0 mi WNW 19.6 mph 25.3 mph 0.00 in Rain Light Rain
1:53 PM 55.9 °F - 48.9 °F 77% 29.68 in 10.0 mi West 16.1 mph 25.3 mph 0.00 in   Overcast
2:27 PM 53.6 °F - 46.4 °F 77% 29.69 in 10.0 mi West 23.0 mph 28.8 mph 0.00 in   Overcast
2:53 PM 54.0 °F - 46.0 °F 75% 29.71 in 10.0 mi West 18.4 mph 28.8 mph 0.00 in   Overcast
3:53 PM 55.0 °F - 46.9 °F 74% 29.73 in 10.0 mi West 19.6 mph - N/A   Mostly Cloudy
4:09 PM 53.6 °F - 46.4 °F 77% 29.73 in 10.0 mi West 19.6 mph 28.8 mph N/A   Mostly Cloudy
4:53 PM 52.0 °F - 46.9 °F 83% 29.76 in 10.0 mi WNW 18.4 mph 27.6 mph 0.00 in   Overcast
5:30 PM 53.6 °F - 44.6 °F 72% 29.77 in 10.0 mi NW 12.7 mph 23.0 mph 0.00 in   Scattered Clouds
5:53 PM 53.1 °F - 43.0 °F 69% 29.80 in 10.0 mi WNW 13.8 mph 21.9 mph 0.00 in   Clear
6:53 PM 48.9 °F - 43.0 °F 80% 29.84 in 10.0 mi West 6.9 mph - N/A   Clear
7:53 PM 45.0 °F 41.8 °F 42.1 °F 90% 29.85 in 10.0 mi SSW 5.8 mph - N/A   Clear
8:53 PM 46.0 °F 43.9 °F 42.1 °F 86% 29.85 in 10.0 mi South 4.6 mph - N/A   Clear
9:53 PM 45.0 °F 42.6 °F 43.0 °F 93% 29.86 in 10.0 mi South 4.6 mph - N/A   Clear
10:53 PM 46.0 °F 41.9 °F 43.0 °F 89% 29.85 in 10.0 mi South 8.1 mph - N/A   Clear
11:53 PM 48.0 °F - 44.1 °F 86% 29.86 in 10.0 mi SSW 9.2 mph - N/A   Mostly Cloudy